weather.gov     
National Weather Service

Regional Weather Roundup
NWS Homepage
This page is being discontinued on March 12, 2014.
The same data is available at this site. Please update your bookmarks.
Thank you, and we apologize for the inconvenience.
Please send an email to SR-SRH.Webmaster@noaa.gov with any concerns.


Current Version
Previous Version:    01  02  03  04  05  06  07  08  09  10  11  12  13  14  15  16  17  18  19  20  21  22  23  24  25  26  27  28  29  30  
   31  32  33  34  35  36  37  38  39  40  41  42  43  44  45  46  47  48  49  50  51  52  53  54  55  56  57  58  59  60  
[Printable]
203
ASUS43 KLOT 011910
RWRIL

ILLINOIS REGIONAL WEATHER ROUNDUP
NATIONAL WEATHER SERVICE CHICAGO/ROMEOVILLE IL
200 PM CDT MON SEP 01 2014

NOTE: "FAIR" INDICATES FEW OR NO CLOUDS BELOW 12,000 FEET WITH NO
SIGNIFICANT WEATHER AND/OR OBSTRUCTIONS TO VISIBILITY.

* THESE STATIONS ARE NOT UNDER NWS QUALITY CONTROL. THEY ALSO MAY NOT
  REPORT WEATHER SUCH AS PRECIPITATION OR FOG.

ILZ001-002-007-009-015-016-024-012000-
NORTHWEST ILLINOIS

CITY           SKY/WX    TMP DP  RH WIND       PRES   REMARKS
MOLINE         MOSUNNY   81  65  58 SW14G21   29.78S HX  83
STERLING*      PTSUNNY   82  66  57 W16       29.78S HX  85
SAVANNA*       MOSUNNY   81  64  56 W12G17    29.76S HX  83
$$

ILZ003-004-008-010-011-017-018-012000-
NORTH CENTRAL ILLINOIS

CITY           SKY/WX    TMP DP  RH WIND       PRES   REMARKS
ROCKFORD       PTSUNNY   80  65  59 SW12G21   29.77F HX  82
FREEPORT*      PTSUNNY   78  68  71 W12       29.79R HX  80
ROCHELLE*      MOSUNNY   80  65  58 W14G20    29.79S HX  82
DE KALB*       PTSUNNY   78  64  61 W17G24    29.79F HX  80
PERU*          MOSUNNY   81  66  60 SW13G18   29.81S HX  83
$$

ILZ005-006-012>014-019>023-012000-
NORTHEAST ILLINOIS

CITY           SKY/WX    TMP DP  RH WIND       PRES   REMARKS
CHICAGO-OHARE  MOSUNNY   81  63  54 SW17G29   29.77S HX  82
CHICAGO-MIDWAY PTSUNNY   83  67  58 SW18G29   29.77F HX  85
AURORA         MOSUNNY   81  66  60 SW10      29.79S HX  83
LANSING*         N/A    N/A N/A N/A MISG        N/A
JOLIET*        SUNNY     82  64  54 SW10G18   29.80F HX  83
WAUKEGAN       MOSUNNY   80  67  64 SW16G22   29.74S HX  82
DUPAGE AIRPORT MOSUNNY   80  65  59 W14G21    29.77F HX  82
KANKAKEE*      CLOUDY    82  72  70 SW13      29.81F HX  87
WHEELING       MOSUNNY   82  64  54 SW15      29.77S HX  83
MORRIS*        SUNNY     82  67  60 SW12      29.79F HX  84
ROMEOVILLE*    MOSUNNY   81  65  57 W16       29.79S HX  82
NORTHERLY ISL    N/A     82  63  52 W15         N/A  HX  83
$$

LMZ740>746-012000-
SOUTHERN LAKE MICHIGAN

STATION/POSITION SKY/WX   TEMP    WIND        PRES    VSBY  WAVE
                          AIR SEA DIR/SP/G                  HT/PER
                          (F)     (DEG/KT/KT) (MB)    (MI)  (FT/S)
SOUTHERN BUOY              72 70  220/ 14/ 16 1006.5F         3/ 5
WAUKEGAN HARBOR            78     250/ 14/ 18   N/A
HARRISON CRIB              78     210/ 18/ 24   N/A
BURNHAM HARBOR             82     250/  7/ 14   N/A
CALUMET HARBOR             82     230/  8/ 14 1007.2S
MICHIGAN CITY              77     220/ 15/ 17   N/A
MICHIGAN CITY 6N           76 72  240/ 12/ 16   N/A           2/ 3
ST. JOSEPH                 73 72  210/  8/ 12   N/A           3/ 4
$$

ILZ025>027-034>036-040-047-049-050-058-095>099-012000-
WEST-CENTRAL ILLINOIS

CITY           SKY/WX    TMP DP  RH WIND       PRES   REMARKS
QUINCY         PTSUNNY   79  65  62 W13G18    29.88R HX  81
GALESBURG*     MOSUNNY   80  67  65 SW14G20   29.82F HX  83
MACOMB*        PTSUNNY   78  66  66 SW14G20   29.86F
JACKSONVILLE*  PTSUNNY   81  66  59 W15G23    29.89S HX  83
PITTSFIELD*    MOSUNNY   81  65  58 W10       29.90R HX  82
$$

ILZ028>032-037-038-041>044-048-051>054-059>061-012000-
CENTRAL ILLINOIS

CITY           SKY/WX    TMP DP  RH WIND       PRES   REMARKS
PONTIAC        MOSUNNY   82  66  57 W14       29.82R HX  85
DECATUR        CLOUDY    82  65  56 W14       29.88R HX  84
PEORIA         PTSUNNY   83  65  54 SW15      29.83S HX  85
LACON*         MOSUNNY   80  64  57 SW14      29.81S HX  82
LINCOLN*       PTSUNNY   81  64  56 W5        29.84R HX  82
SPRINGFIELD    PTSUNNY   80  64  58 W16G24    29.88R HX  82
TAYLORVILLE    CLOUDY    79  64  61 W9G20     29.89R HX  81
$$

ILZ033-039-045-046-055>057-062-063-012000-
EAST-CENTRAL ILLINOIS

CITY           SKY/WX    TMP DP  RH WIND       PRES   REMARKS
CHAMPAIGN      PTSUNNY   82  66  58 SW20G29   29.87R HX  84
DANVILLE*      PTSUNNY   82  72  72 SW15G23   29.82F HX  86
RANTOUL*       PTSUNNY   83  66  55 W16G23    29.86R HX  85
MATTOON        CLOUDY    81  69  67 SW14G23   29.89R HX  84
PARIS*         CLOUDY    83  72  70 SW14G20   29.88R HX  88
$$

ILZ079-100>102-012000-
SOUTHWEST ILLINOIS

CITY           SKY/WX    TMP DP  RH WIND       PRES   REMARKS
BELLEVILLE     CLOUDY    82  69  63 VRB6      29.91R HX  85
CAHOKIA*       CLOUDY    84  65  52 NW7G17    29.90S HX  86
SPARTA*        CLOUDY    82  67  61 W10G18    29.93R HX  84
$$

ILZ064>066-069>071-074>076-080>082-084>086-088>090-092>094-012000-
SOUTH-CENTRAL ILLINOIS

CITY           SKY/WX    TMP DP  RH WIND       PRES   REMARKS
CARBONDALE     CLOUDY    83  72  69 SW14G22   29.89R HX  88
CAIRO*         PTSUNNY   85  73  65 S15G23    29.91F HX  91
EFFINGHAM*     CLOUDY    83  65  55 SW13G24   29.90R HX  85
MARION         CLOUDY    84  73  70 S16       29.90R HX  91
MT. VERNON     CLOUDY    84  72  65 SW15      29.93R HX  89
CENTRALIA*     CLOUDY    79  66  65 W10G17    29.92R HX  81
SALEM*         CLOUDY    82  70  65 W14       29.93R HX  86
METROPOLIS*    PTSUNNY   84  73  67 S22G28    29.91F HX  90
$$

ILZ067-068-072-073-078-083-087-091-012000-
SOUTHEAST ILLINOIS

CITY           SKY/WX    TMP DP  RH WIND       PRES   REMARKS
LAWRENCEVILLE  CLOUDY    84  72  67 SW20G28   29.90R HX  89
FLORA*         CLOUDY    81  69  68 SW13G18   29.91R HX  84
FAIRFIELD*     CLOUDY    84  75  74 SW12      29.90R HX  92
HARRISBURG*    CLOUDY    82  73  75 S14G21    29.91S HX  87
ROBINSON*      CLOUDY    83  75  75 SW15      29.90R HX  90
CARMI*         CLOUDY    85  74  71 SW12G21   29.90S HX  92
$$

ABBREVIATIONS USED IN REMARKS
   TC - TEMPERATURE IN CELSIUS
  WCI - WIND CHILL INDEX
   HX - HEAT INDEX
  VSB - VISIBILITY
$$





U.S. Dept. of Commerce
NOAA National Weather Service
1325 East West Highway
Silver Spring, MD 20910
E-mail: w-nws.webmaster@noaa.gov
Page last modified: May 16, 2007
NATIONAL WEATHER SERVICE: for Safety, for Work, for Fun - FOR LIFE